Location: Most
(50.5133°N, 13.6207°E)
Time: 09:38:59
(UTC+02:00)

ISS - Pass Details

Date: 21 July 2018
Orbit: 402 x 408 km, 51.6° (Epoch: 17 July)

Event Time Altitude Azimuth Distance (km) Brightness Sun altitude
Rises 04:35:05 0° 281° (W) 2,331 -0.3 -6.1°
Reaches altitude 10° 04:37:50 10° 256° (WSW) 1,467 -1.5 -5.8°
Maximum altitude 04:39:43 14° 221° (SW) 1,226 -2.0 -5.6°
Drops below altitude 10° 04:41:35 10° 186° (S) 1,463 -1.4 -5.3°
Sets 04:44:20 0° 161° (SSE) 2,319 -0.2 -5.0°
